Terminal Aerodrome Forecast
Issued by NWS Milwaukee/Sullivan, WI

Home | Current Version | Previous Version | Text Only | Print | Product List | Glossary On
Versions: 1 2 3 4 5 6 7 8 9 10 11 12 13 14 15 16 17 18 19 20 21 22 23 24 25 26 27 28 29 30 31 32 33 34 35 36 37 38 39 40 41 42 43
000
FTUS43 KMKX 062320
TAFMSN
TAF
KMSN 062320Z 0700/0724 22007KT P6SM SKC
     FM070400 24004KT P6SM BKN110
     FM071400 26009KT P6SM BKN040
     FM071500 27010G18KT P6SM SCT060
     FM071900 30011G19KT P6SM SCT025=

USA.gov is the U.S. government's official web portal to all federal, state and local government web resources and services.